Dewpoint
33 27 22 21 19 14 9 5 3 4 16 15 10 9 9 10 10 9 12 18 19 20 25 29 36 41 43 43 44 44 44 43 41 41 39 37 39 42 42 45 44 44 45 48
28 23 21 18 18 16 15 11 10 10 15 16 13 11 10 11 12 16 19 17 20 21 26 33 36 40 41 42 42 42 42 40 38 38 38 39 42 42 42 44 44 45 46 48
25 23 20 16 17 15 14 12 10 11 17 16 14 14 15 18 19 18 17 19 21 23 28 33 37 39 40 40 41 40 39 36 35 35 38 40 42 42 42 43 44 45 46 46
25 22 18 18 15 14 11 16 14 18 17 17 15 7 6 11 15 18 20 17 20 25 29 33 36 38 39 40 39 37 36 35 34 34 35 38 40 40 42 42 43 44 45 46
26 23 22 22 17 15 20 22 17 20 21 19 16 13 8 9 12 18 20 19 21 24 28 32 35 37 39 39 37 36 35 34 34 34 37 39 38 40 41 42 42 43 44 46
27 29 26 24 23 24 24 24 24 25 25 21 22 15 13 14 14 13 19 18 22 24 28 32 35 38 38 39 37 35 35 34 34 37 38 38 38 39 40 41 41 42 44 45
24 26 28 27 24 28 28 24 24 21 17 19 16 13 14 19 18 18 16 17 21 25 28 32 35 36 37 37 37 36 34 33 34 35 38 38 38 39 39 41 41 41 43 44
25 21 26 27 27 25 26 24 26 15 21 22 17 11 17 24 22 21 14 17 24 25 29 32 35 35 36 37 37 34 34 32 33 35 37 39 39 39 39 39 40 41 42 44
26 25 28 28 27 27 23 22 25 23 19 21 21 18 22 21 16 16 14 17 20 24 28 31 33 34 35 35 36 35 33 32 32 34 37 38 39 39 39 39 41 42 42 43
31 25 27 27 29 27 25 24 17 25 15 16 20 12 20 22 20 20 19 15 15 21 27 30 32 33 35 35 35 35 34 32 32 33 37 38 39 39 40 40 40 41 42 44
32 31 26 27 26 24 22 23 21 24 24 25 22 18 22 23 24 25 26 26 25 19 22 26 30 32 33 34 35 34 33 32 32 33 37 38 38 39 39 39 40 41 44 45
30 29 25 26 27 26 25 21 22 26 24 23 25 21 24 24 25 28 26 28 28 28 26 21 26 29 32 34 35 34 34 32 33 34 37 38 39 39 39 39 40 44 44 45
27 28 24 23 27 25 24 23 23 25 27 22 21 24 26 26 27 28 29 30 32 30 31 29 21 27 29 32 34 34 34 32 33 34 37 38 38 39 39 40 43 44 44 44
34 30 27 22 24 26 23 24 23 24 24 26 25 25 26 28 26 31 30 30 31 33 36 35 33 26 28 31 33 34 33 32 34 35 37 38 38 39 39 41 44 44 44 44
28 21 21 24 24 23 24 24 24 22 24 24 26 24 26 30 28 30 30 33 33 34 34 35 34 35 35 32 33 33 33 33 34 35 37 38 39 39 40 43 43 44 45 46
27 25 24 19 23 25 24 26 24 23 25 23 24 23 28 26 30 31 33 34 34 33 33 32 33 33 33 32 35 33 33 33 34 35 36 38 39 39 41 42 43 45 45 46
26 25 24 19 21 21 16 24 26 25 26 23 20 22 23 28 27 30 33 35 34 33 32 32 32 34 34 35 35 35 33 34 33 35 36 37 38 39 41 42 44 44 45 45
26 29 30 23 18 8 21 28 27 25 25 27 25 28 29 29 32 35 35 35 34 33 33 33 33 33 33 33 33 34 34 34 34 35 37 38 38 39 40 41 43 44 44 44
29 31 26 20 16 24 25 24 26 26 25 28 24 27 27 31 33 32 33 34 35 35 35 35 34 33 32 32 32 33 34 34 35 35 37 37 39 38 39 41 42 43 42 42
35 33 28 25 18 15 23 26 27 26 23 28 28 28 28 29 30 31 32 32 32 33 35 35 34 33 31 32 32 32 32 33 34 35 35 37 38 39 39 39 39 38 39 37
29 30 21 20 16 24 26 28 28 19 23 29 30 28 28 29 32 33 28 26 29 32 34 34 34 32 32 32 31 31 32 32 33 34 34 35 37 38 40 39 38 37 36 35
26 26 25 27 23 20 28 27 23 29 31 33 32 32 33 32 28 25 22 23 25 27 30 33 33 34 33 31 31 31 31 32 33 33 33 34 35 36 37 37 36 35 35 34
24 26 25 27 25 28 27 29 32 34 33 33 34 33 29 25 21 21 20 22 25 26 28 30 32 31 32 31 30 30 31 32 32 32 32 33 34 34 34 35 34 33 34 34
25 25 26 24 26 27 29 32 33 34 33 33 30 28 25 22 20 22 25 25 26 26 27 29 28 28 29 31 31 30 29 30 31 32 33 33 33 34 33 33 34 35 34 34
26 26 23 25 26 27 30 33 33 32 28 25 23 23 23 22 20 23 25 24 24 23 26 26 26 26 27 29 29 30 31 30 31 31 32 33 33 33 33 33 34 35 35 36
26 25 23 23 27 26 30 34 30 26 24 25 24 24 26 26 24 24 25 24 24 24 25 24 24 24 25 27 28 28 31 31 31 32 32 33 33 33 33 33 32 36 37 38
Lifted_Index
8 7 6 7 8 8 7 6 6 7 7 7 6 6 6 6 7 7 7 7 7 7 8 9 10 10 10 10 11 11 12 12 13 14 14 14 14 13 13 13 12 12 11 11
7 6 7 7 7 7 7 6 6 7 7 7 6 6 5 6 6 7 7 7 7 7 8 9 10 10 10 10 11 12 12 13 13 14 15 15 14 13 13 13 12 12 11 10
6 7 7 7 7 6 6 6 6 6 7 7 6 5 5 5 6 7 7 7 7 7 8 9 10 10 11 11 11 12 13 13 14 14 15 15 13 13 13 13 12 12 11 10
6 7 7 6 6 6 6 6 6 6 6 6 5 4 4 5 6 6 7 7 7 8 8 9 9 10 11 11 12 12 13 13 14 15 15 14 12 12 13 13 12 12 11 10
6 7 6 6 6 7 7 7 7 6 5 5 4 4 5 5 5 6 6 7 8 8 8 9 10 10 11 11 11 12 12 13 14 15 15 14 12 12 13 13 13 12 11 10
6 6 7 7 7 7 7 6 6 5 4 4 4 4 5 5 6 6 7 7 8 8 9 9 9 10 10 10 11 11 11 12 13 15 15 13 12 12 12 13 12 12 11 10
4 5 6 7 7 7 6 5 3 3 2 3 4 4 5 6 7 7 7 8 8 9 9 9 9 9 9 9 10 10 10 11 13 15 15 13 12 12 12 12 12 11 11 10
2 3 5 6 6 5 5 4 3 1 1 2 4 5 5 7 7 7 7 7 8 8 9 8 8 8 8 8 9 9 9 10 12 14 14 13 12 12 12 11 11 11 11 10
2 2 4 5 6 5 4 4 3 2 2 2 3 4 5 6 6 6 6 7 7 8 9 8 8 7 8 8 9 9 9 10 11 13 14 13 12 11 11 11 11 11 11 10
2 3 3 4 5 5 4 4 3 3 2 1 2 3 5 5 5 5 6 7 7 8 9 9 8 7 8 8 9 9 9 10 10 12 13 13 12 11 11 11 11 11 11 10
3 2 3 3 4 4 4 3 3 2 2 1 1 3 5 6 6 6 6 7 8 8 9 9 9 8 8 8 8 9 9 9 10 11 12 13 12 11 11 11 11 11 11 10
2 2 2 2 3 3 3 2 2 2 2 1 1 3 5 6 6 6 7 7 8 8 8 9 9 9 8 8 8 8 8 9 9 10 11 12 11 10 10 11 11 10 10 10
2 2 1 1 2 3 3 2 1 1 1 1 1 2 4 5 5 6 6 7 7 7 7 7 8 8 8 8 8 8 8 8 9 10 10 11 11 10 10 10 10 10 10 10
2 2 1 1 2 2 2 2 1 2 2 2 2 2 3 4 5 5 6 6 6 6 6 6 6 7 7 7 8 8 8 8 8 9 10 10 11 10 9 9 9 9 9 9
3 2 2 2 2 2 2 2 2 3 3 3 3 3 3 3 5 5 6 6 6 6 6 6 6 6 6 7 7 8 8 8 8 9 9 10 11 10 9 9 9 9 9 9
4 3 3 3 3 3 3 3 4 4 4 4 4 3 3 4 5 6 6 6 6 6 6 6 6 6 6 6 6 7 8 9 8 8 9 10 10 10 9 9 9 9 9 9
4 4 3 3 3 3 4 4 4 4 4 4 4 4 4 4 5 6 6 6 6 6 6 6 6 6 6 6 6 6 7 8 9 8 8 9 10 10 9 8 8 8 9 9
4 4 3 3 3 3 4 5 5 5 4 4 5 4 4 5 5 5 6 6 5 5 5 5 6 6 6 6 6 6 7 8 8 8 8 9 9 9 8 7 8 8 8 8
4 4 4 4 3 3 5 5 5 5 4 4 4 4 4 4 4 4 4 4 5 5 5 5 5 5 6 6 6 6 6 7 8 8 8 9 9 9 7 7 7 7 8 8
4 4 4 4 3 4 4 5 4 4 4 3 3 3 3 3 3 3 3 4 4 5 6 6 6 6 5 5 6 5 5 6 7 8 9 9 9 9 7 6 6 7 7 7
4 4 4 4 4 4 4 4 3 3 3 2 2 2 2 2 2 2 3 3 4 6 7 7 7 7 6 6 5 5 5 5 6 8 9 9 9 9 7 6 6 6 6 6
4 4 4 4 4 4 3 3 2 2 2 2 1 1 1 1 1 2 3 3 4 6 7 8 8 8 7 7 6 5 4 5 6 7 8 8 9 9 8 6 5 5 5 5
4 4 4 4 4 3 3 2 2 1 1 1 1 1 1 1 1 2 3 4 5 6 7 7 8 8 8 8 7 6 5 5 5 5 6 7 8 9 8 7 6 5 5 5
4 4 4 4 4 3 3 2 2 1 1 1 1 1 2 2 2 3 4 5 6 7 7 7 8 8 8 8 8 6 5 4 4 4 5 5 7 8 9 8 6 5 5 4
4 4 4 4 4 4 3 3 3 2 2 2 2 3 3 3 4 4 5 6 7 7 8 8 8 8 9 9 8 7 5 4 4 4 4 4 5 7 8 8 7 6 5 5
5 4 4 4 4 4 4 4 3 3 3 3 3 3 4 4 5 6 6 7 7 8 8 8 9 9 9 9 9 8 6 5 4 4 4 4 4 5 7 9 8 6 5 5